Location: Felsheim
(48.7267°N, 10.7386°E)
Time: 23:53:54
(UTC+00:00)

Cosmos 1980 Rocket - Pass Details

Date: 09 April 2020
Orbit: 828 x 851 km, 71.0° (Epoch: 03 June)

Event Time Altitude Azimuth Distance (km) Brightness Sun altitude
Rises 19:52:55 0° 336° (NNW) 3,387 6.4 -17.7°
Reaches altitude 10° 19:55:46 10° 348° (NNW) 2,453 5.3 -18.0°
Maximum altitude 20:00:27 26° 45° (NE) 1,583 3.5 -18.7°
Enters shadow 20:02:40 21° 80° (E) 1,816 3.6 -18.9°
